Location: Deurze
(52.9838°N, 6.6090°E)
Time: 19:29:45
(UTC+00:00)

CZ-4B R/B - Pass Details

Date: 11 March 2026
Orbit: 441 x 562 km, 97.8° (Epoch: 20 April)

Event Time Altitude Azimuth Distance (km) Brightness Sun altitude
Exits shadow 19:42:05 27° 44° (NE) 1,123 4.2 -20.2°
Drops below altitude 10° 19:44:50 10° 5° (N) 1,870 5.7 -20.6°
Sets 19:47:11 0° 354° (N) 2,763 6.8 -20.9°
